SV8FES-1 Weather Reports


time (UTC)temp
C
wind
direction
speed
KPH
gust
KPH
rain 1hr
cm
rain 24hr
cm
rain mn
cm
humidity
%
barometer
mb
20260906095714 30 305 9.7 32.2 0.00 0.00 0.00 52 1015.1
20260906095603 30 301 9.7 32.2 0.00 0.00 0.00 52 1015.0
20260906095515 30 297 9.7 29.0 0.00 0.00 0.00 52 1015.0
20260906095404 30 299 9.7 29.0 0.00 0.00 0.00 52 1015.1
20260906095315 30 303 11.3 29.0 0.00 0.00 0.00 52 1015.1
20260906095204 30 303 11.3 29.0 0.00 0.00 0.00 52 1015.0
20260906095115 30 302 11.3 29.0 0.00 0.00 0.00 52 1015.1
20260906095004 30 301 12.9 29.0 0.00 0.00 0.00 51 1015.0
20260906094915 30 305 12.9 29.0 0.00 0.00 0.00 51 1015.1
20260906094804 30 306 12.9 29.0 0.00 0.00 0.00 51 1015.0
20260906094715 30 308 14.5 29.0 0.00 0.00 0.00 51 1015.1
20260906094604 30 315 14.5 29.0 0.00 0.00 0.00 51 1015.0
20260906094515 30 317 14.5 35.4 0.00 0.00 0.00 51 1015.0
20260906094403 30 319 14.5 45.1 0.00 0.00 0.00 52 1015.1
20260906094316 30 320 14.5 46.7 0.00 0.00 0.00 52 1015.1
20260906094203 30 317 14.5 46.7 0.00 0.00 0.00 52 1015.1
20260906094115 30 316 12.9 46.7 0.00 0.00 0.00 52 1015.1
20260906094004 30 314 12.9 46.7 0.00 0.00 0.00 52 1015.1
20260906093915 30 313 12.9 46.7 0.00 0.00 0.00 52 1015.1
20260906093803 29 313 11.3 46.7 0.00 0.00 0.00 52 1015.1
20260906093715 29 311 11.3 46.7 0.00 0.00 0.00 51 1015.1
20260906093604 30 309 9.7 46.7 0.00 0.00 0.00 51 1015.1
20260906093515 30 309 9.7 46.7 0.00 0.00 0.00 51 1015.2
20260906093403 30 305 8.0 46.7 0.00 0.00 0.00 51 1015.1
20260906093315 30 300 8.0 29.0 0.00 0.00 0.00 51 1015.1
20260906093203 30 303 8.0 29.0 0.00 0.00 0.00 50 1015.2
20260906093115 30 302 8.0 29.0 0.00 0.00 0.00 51 1015.1
20260906093004 30 302 8.0 29.0 0.00 0.00 0.00 50 1015.1
20260906092916 30 299 8.0 29.0 0.00 0.00 0.00 50 1015.0
20260906092804 30 298 6.4 29.0 0.00 0.00 0.00 50 1015.1
20260906092715 30 301 6.4 29.0 0.00 0.00 0.00 50 1015.0
20260906092604 30 303 6.4 29.0 0.00 0.00 0.00 50 1015.1
20260906092515 30 303 6.4 24.1 0.00 0.00 0.00 50 1015.1
20260906092404 30 305 6.4 20.9 0.00 0.00 0.00 51 1015.1
20260906092315 30 308 6.4 20.9 0.00 0.00 0.00 51 1015.1
20260906092204 30 314 6.4 27.4 0.00 0.00 0.00 50 1015.1
20260906092115 30 312 6.4 27.4 0.00 0.00 0.00 50 1015.1
20260906092004 30 319 8.0 27.4 0.00 0.00 0.00 50 1015.1
20260906091915 30 326 8.0 27.4 0.00 0.00 0.00 50 1015.2
20260906091804 30 328 8.0 29.0 0.00 0.00 0.00 50 1015.1
20260906091715 30 330 8.0 29.0 0.00 0.00 0.00 50 1015.2
20260906091604 30 330 9.7 29.0 0.00 0.00 0.00 51 1015.2
20260906091515 30 338 9.7 29.0 0.00 0.00 0.00 50 1015.1
20260906091403 30 330 9.7 29.0 0.00 0.00 0.00 50 1015.2
20260906091315 30 322 11.3 29.0 0.00 0.00 0.00 49 1015.1
20260906091204 30 307 11.3 29.0 0.00 0.00 0.00 49 1015.2
20260906091116 30 317 11.3 32.2 0.00 0.00 0.00 49 1015.2
20260906091004 30 319 12.9 38.6 0.00 0.00 0.00 48 1015.1
20260906090915 30 312 12.9 38.6 0.00 0.00 0.00 49 1015.2
20260906090803 30 308 12.9 38.6 0.00 0.00 0.00 48 1015.2
20260906090715 30 308 12.9 38.6 0.00 0.00 0.00 48 1015.2
20260906090604 30 309 12.9 38.6 0.00 0.00 0.00 48 1015.2
20260906090515 30 307 12.9 38.6 0.00 0.00 0.00 48 1015.1
20260906090404 30 309 12.9 38.6 0.00 0.00 0.00 48 1015.2
20260906090315 29 309 12.9 38.6 0.00 0.00 0.00 48 1015.2
20260906090204 29 310 11.3 38.6 0.00 0.00 0.00 47 1015.2
20260906090116 29 311 11.3 38.6 0.00 0.00 0.00 48 1015.2
20260906090003 29 307 11.3 38.6 0.00 0.00 0.00 48 1015.2
20260906085916 29 307 11.3 38.6 0.00 0.00 0.00 48 1015.2
20260906085803 29 310 11.3 38.6 0.00 0.00 0.00 48 1015.1
20260906085716 29 312 11.3 38.6 0.00 0.00 0.00 48 1015.2
20260906085604 29 310 9.7 38.6 0.00 0.00 0.00 49 1015.1
20260906085515 29 312 11.3 38.6 0.00 0.00 0.00 49 1015.1
20260906085404 29 311 11.3 38.6 0.00 0.00 0.00 49 1015.1
20260906085316 29 309 11.3 29.0 0.00 0.00 0.00 50 1015.1
20260906085204 29 305 9.7 35.4 0.00 0.00 0.00 50 1015.1
20260906085115 29 302 9.7 35.4 0.00 0.00 0.00 51 1015.1
20260906085004 29 305 9.7 35.4 0.00 0.00 0.00 51 1015.0
20260906084916 29 303 9.7 35.4 0.00 0.00 0.00 51 1015.1
20260906084804 29 301 9.7 35.4 0.00 0.00 0.00 50 1015.1
20260906084715 29 299 9.7 35.4 0.00 0.00 0.00 51 1015.1
20260906084604 29 304 9.7 35.4 0.00 0.00 0.00 50 1015.1
20260906084516 29 300 9.7 35.4 0.00 0.00 0.00 51 1015.1
20260906084403 29 299 9.7 35.4 0.00 0.00 0.00 50 1015.1
20260906084315 29 301 9.7 35.4 0.00 0.00 0.00 50 1015.1
20260906084203 29 304 9.7 29.0 0.00 0.00 0.00 51 1015.2
20260906084115 29 305 9.7 29.0 0.00 0.00 0.00 52 1015.1
20260906084004 29 298 9.7 29.0 0.00 0.00 0.00 52 1015.2
20260906083916 29 305 9.7 29.0 0.00 0.00 0.00 53 1015.2
20260906083804 29 305 9.7 29.0 0.00 0.00 0.00 53 1015.2
20260906083716 29 302 9.7 29.0 0.00 0.00 0.00 53 1015.1
20260906083604 29 295 9.7 29.0 0.00 0.00 0.00 52 1015.2
20260906083516 29 306 11.3 29.0 0.00 0.00 0.00 53 1015.2
20260906083404 28 310 11.3 29.0 0.00 0.00 0.00 52 1015.1
20260906083315 28 307 11.3 29.0 0.00 0.00 0.00 52 1015.2
20260906083204 28 305 12.9 29.0 0.00 0.00 0.00 52 1015.2
20260906083116 28 306 12.9 29.0 0.00 0.00 0.00 53 1015.2
20260906083003 28 311 14.5 29.0 0.00 0.00 0.00 53 1015.2
20260906082915 28 310 14.5 32.2 0.00 0.00 0.00 53 1015.2
20260906082804 28 310 14.5 32.2 0.00 0.00 0.00 53 1015.2
20260906082716 28 312 16.1 32.2 0.00 0.00 0.00 53 1015.2
20260906082603 28 319 16.1 32.2 0.00 0.00 0.00 54 1015.2
20260906082515 28 315 16.1 35.4 0.00 0.00 0.00 54 1015.1
20260906082404 28 316 16.1 35.4 0.00 0.00 0.00 53 1015.1
20260906082315 28 317 16.1 35.4 0.00 0.00 0.00 53 1015.2
20260906082203 28 321 16.1 35.4 0.00 0.00 0.00 55 1015.2
20260906082116 28 321 17.7 35.4 0.00 0.00 0.00 55 1015.3
20260906082003 28 321 17.7 35.4 0.00 0.00 0.00 55 1015.3
20260906081916 28 319 17.7 35.4 0.00 0.00 0.00 54 1015.3
20260906081803 28 321 17.7 35.4 0.00 0.00 0.00 55 1015.3
20260906081715 28 321 16.1 35.4 0.00 0.00 0.00 54 1015.3
20260906081604 28 319 16.1 35.4 0.00 0.00 0.00 54 1015.3
20260906081516 28 318 16.1 41.8 0.00 0.00 0.00 55 1015.3
20260906081403 28 317 16.1 41.8 0.00 0.00 0.00 54 1015.3
20260906081315 28 317 16.1 41.8 0.00 0.00 0.00 55 1015.3
20260906081203 28 316 16.1 41.8 0.00 0.00 0.00 55 1015.3
20260906081116 28 315 14.5 41.8 0.00 0.00 0.00 55 1015.3
20260906081003 28 315 14.5 41.8 0.00 0.00 0.00 55 1015.3
20260906080916 28 313 14.5 41.8 0.00 0.00 0.00 55 1015.3
20260906080803 28 310 14.5 41.8 0.00 0.00 0.00 55 1015.3
20260906080716 28 313 14.5 41.8 0.00 0.00 0.00 54 1015.3
20260906080604 28 311 12.9 41.8 0.00 0.00 0.00 54 1015.3
20260906080516 28 311 12.9 38.6 0.00 0.00 0.00 54 1015.3
20260906080404 28 310 12.9 38.6 0.00 0.00 0.00 54 1015.3
20260906080315 28 310 12.9 38.6 0.00 0.00 0.00 54 1015.2
20260906080203 28 311 12.9 38.6 0.00 0.00 0.00 54 1015.2
20260906080116 28 314 12.9 32.2 0.00 0.00 0.00 54 1015.3
20260906080003 28 316 12.9 32.2 0.00 0.00 0.00 54 1015.2
20260906075915 28 318 12.9 32.2 0.00 0.00 0.00 54 1015.3
20260906075804 28 318 12.9 32.2 0.00 0.00 0.00 54 1015.2
20260906075715 28 314 11.3 32.2 0.00 0.00 0.00 54 1015.2
20260906075603 28 318 11.3 29.0 0.00 0.00 0.00 54 1015.3
20260906075515 28 317 11.3 29.0 0.00 0.00 0.00 54 1015.3
20260906075404 28 316 11.3 29.0 0.00 0.00 0.00 55 1015.3
20260906075315 28 315 11.3 29.0 0.00 0.00 0.00 55 1015.3
20260906075204 28 310 11.3 29.0 0.00 0.00 0.00 55 1015.3
20260906075115 28 310 11.3 29.0 0.00 0.00 0.00 54 1015.3
20260906075004 28 309 11.3 29.0 0.00 0.00 0.00 54 1015.3
20260906074915 28 309 11.3 32.2 0.00 0.00 0.00 54 1015.3
20260906074804 28 310 11.3 32.2 0.00 0.00 0.00 53 1015.3
20260906074715 28 314 9.7 32.2 0.00 0.00 0.00 53 1015.3
20260906074604 28 317 9.7 32.2 0.00 0.00 0.00 52 1015.3
20260906074515 28 319 9.7 32.2 0.00 0.00 0.00 52 1015.2
20260906074404 28 322 9.7 32.2 0.00 0.00 0.00 52 1015.2
20260906074316 28 325 8.0 32.2 0.00 0.00 0.00 52 1015.2
20260906074205 28 330 8.0 32.2 0.00 0.00 0.00 53 1015.2
20260906074116 28 326 8.0 32.2 0.00 0.00 0.00 53 1015.2
20260906074004 28 322 8.0 32.2 0.00 0.00 0.00 52 1015.2
20260906073915 28 321 8.0 29.0 0.00 0.00 0.00 52 1015.2
20260906073804 28 320 6.4 29.0 0.00 0.00 0.00 52 1015.3
20260906073715 28 316 6.4 29.0 0.00 0.00 0.00 52 1015.2
20260906073603 28 309 6.4 29.0 0.00 0.00 0.00 52 1015.2
20260906073515 28 305 6.4 29.0 0.00 0.00 0.00 52 1015.2
20260906073404 28 303 6.4 29.0 0.00 0.00 0.00 52 1015.1
20260906073315 28 300 6.4 29.0 0.00 0.00 0.00 52 1015.1
20260906073204 28 301 6.4 29.0 0.00 0.00 0.00 52 1015.1
20260906073115 28 307 6.4 29.0 0.00 0.00 0.00 52 1015.0
20260906073004 28 318 6.4 24.1 0.00 0.00 0.00 53 1015.1
20260906072915 28 324 6.4 24.1 0.00 0.00 0.00 53 1015.1
20260906072804 28 326 6.4 24.1 0.00 0.00 0.00 53 1015.0
20260906072714 28 325 6.4 24.1 0.00 0.00 0.00 53 1015.0
20260906072604 28 319 6.4 27.4 0.00 0.00 0.00 53 1015.0
20260906072515 28 320 6.4 27.4 0.00 0.00 0.00 53 1015.0
20260906072404 28 318 6.4 27.4 0.00 0.00 0.00 53 1015.1
20260906072315 28 313 6.4 27.4 0.00 0.00 0.00 53 1015.1
20260906072204 28 310 6.4 27.4 0.00 0.00 0.00 54 1015.1
20260906072116 28 308 6.4 27.4 0.00 0.00 0.00 54 1015.1
20260906072004 28 304 6.4 27.4 0.00 0.00 0.00 54 1015.1
20260906071915 28 304 6.4 27.4 0.00 0.00 0.00 54 1015.0
20260906071804 28 309 6.4 27.4 0.00 0.00 0.00 54 1015.0
20260906071715 28 309 6.4 27.4 0.00 0.00 0.00 55 1015.0
20260906071604 28 317 6.4 20.9 0.00 0.00 0.00 55 1015.0
20260906071515 28 317 8.0 20.9 0.00 0.00 0.00 55 1015.0
20260906071403 28 319 8.0 20.9 0.00 0.00 0.00 55 1015.0
20260906071316 28 320 8.0 20.9 0.00 0.00 0.00 56 1015.0
20260906071204 28 320 8.0 24.1 0.00 0.00 0.00 57 1015.0
20260906071115 27 319 8.0 24.1 0.00 0.00 0.00 57 1015.0
20260906071004 27 321 8.0 24.1 0.00 0.00 0.00 57 1015.0
20260906070915 27 317 9.7 27.4 0.00 0.00 0.00 57 1015.0
20260906070804 27 313 9.7 27.4 0.00 0.00 0.00 57 1015.1
20260906070715 27 314 9.7 27.4 0.00 0.00 0.00 57 1015.1
20260906070604 27 313 9.7 27.4 0.00 0.00 0.00 57 1015.0
20260906070515 27 312 9.7 27.4 0.00 0.00 0.00 57 1015.1
20260906070404 27 314 9.7 29.0 0.00 0.00 0.00 57 1015.0
20260906070316 27 315 9.7 29.0 0.00 0.00 0.00 57 1015.0
20260906070203 27 319 9.7 29.0 0.00 0.00 0.00 57 1015.0
20260906070116 27 324 9.7 29.0 0.00 0.00 0.00 57 1015.0
20260906070004 27 324 9.7 29.0 0.00 0.00 0.00 58 1015.0
20260906065915 27 326 8.0 29.0 0.00 0.00 0.00 58 1015.0
20260906065804 27 327 8.0 29.0 0.00 0.00 0.00 58 1015.0
20260906065715 27 324 8.0 29.0 0.00 0.00 0.00 58 1015.0
20260906065604 27 322 8.0 29.0 0.00 0.00 0.00 58 1015.0
20260906065516 27 321 8.0 29.0 0.00 0.00 0.00 58 1015.0
20260906065404 27 320 8.0 24.1 0.00 0.00 0.00 58 1015.0
20260906065315 27 319 8.0 24.1 0.00 0.00 0.00 58 1015.0
20260906065205 27 314 6.4 24.1 0.00 0.00 0.00 58 1015.0
20260906065116 27 310 6.4 24.1 0.00 0.00 0.00 59 1015.0
20260906065004 27 306 6.4 24.1 0.00 0.00 0.00 58 1015.0
20260906064915 27 303 6.4 24.1 0.00 0.00 0.00 58 1015.0
20260906064805 27 299 6.4 24.1 0.00 0.00 0.00 59 1015.0
20260906064716 27 299 6.4 24.1 0.00 0.00 0.00 59 1015.0
20260906064604 27 298 6.4 24.1 0.00 0.00 0.00 59 1015.0
20260906064515 27 299 6.4 24.1 0.00 0.00 0.00 60 1015.0
20260906064404 27 296 6.4 24.1 0.00 0.00 0.00 60 1014.9
20260906064316 27 296 6.4 24.1 0.00 0.00 0.00 60 1015.0
20260906064204 27 301 6.4 24.1 0.00 0.00 0.00 60 1014.9
20260906064115 27 300 6.4 24.1 0.00 0.00 0.00 60 1014.9
20260906064005 27 298 6.4 24.1 0.00 0.00 0.00 60 1014.9
20260906063916 27 294 6.4 24.1 0.00 0.00 0.00 60 1014.9
20260906063804 27 296 6.4 24.1 0.00 0.00 0.00 61 1014.9
20260906063716 27 297 6.4 24.1 0.00 0.00 0.00 61 1014.9
20260906063604 27 296 6.4 24.1 0.00 0.00 0.00 61 1014.9
20260906063516 27 295 6.4 17.7 0.00 0.00 0.00 61 1014.9
20260906063404 27 297 6.4 17.7 0.00 0.00 0.00 61 1014.9
20260906063316 27 296 6.4 17.7 0.00 0.00 0.00 61 1014.8
20260906063204 27 294 6.4 17.7 0.00 0.00 0.00 61 1014.8
20260906063116 27 293 6.4 17.7 0.00 0.00 0.00 61 1014.8
20260906063003 27 295 6.4 17.7 0.00 0.00 0.00 60 1014.8
20260906062916 27 299 6.4 17.7 0.00 0.00 0.00 60 1014.8
20260906062803 27 300 6.4 17.7 0.00 0.00 0.00 60 1014.7
20260906062715 27 302 6.4 17.7 0.00 0.00 0.00 61 1014.7
20260906062604 27 311 6.4 17.7 0.00 0.00 0.00 60 1014.7
20260906062515 27 317 6.4 17.7 0.00 0.00 0.00 60 1014.7
20260906062403 27 321 6.4 17.7 0.00 0.00 0.00 60 1014.7
20260906062316 27 325 4.8 17.7 0.00 0.00 0.00 60 1014.7
20260906062204 27 329 4.8 17.7 0.00 0.00 0.00 60 1014.7
20260906062115 27 337 4.8 17.7 0.00 0.00 0.00 60 1014.7
20260906062004 27 349 4.8 11.3 0.00 0.00 0.00 60 1014.6
20260906061915 27 354 4.8 11.3 0.00 0.00 0.00 60 1014.6
20260906061804 27 3 4.8 11.3 0.00 0.00 0.00 60 1014.6
20260906061716 27 1 4.8 11.3 0.00 0.00 0.00 60 1014.6
20260906061604 27 355 4.8 11.3 0.00 0.00 0.00 60 1014.6
20260906061516 27 353 6.4 11.3 0.00 0.00 0.00 60 1014.6
20260906061404 26 2 6.4 11.3 0.00 0.00 0.00 60 1014.6
20260906061317 26 1 6.4 14.5 0.00 0.00 0.00 60 1014.6
20260906061204 26 7 6.4 14.5 0.00 0.00 0.00 60 1014.6
20260906061116 26 9 6.4 20.9 0.00 0.00 0.00 60 1014.6
20260906061004 26 1 6.4 20.9 0.00 0.00 0.00 60 1014.6
20260906060916 26 356 6.4 20.9 0.00 0.00 0.00 60 1014.6
20260906060803 26 351 6.4 20.9 0.00 0.00 0.00 60 1014.6
20260906060716 26 346 6.4 20.9 0.00 0.00 0.00 60 1014.6
20260906060604 26 341 4.8 20.9 0.00 0.00 0.00 60 1014.6
20260906060515 26 337 4.8 20.9 0.00 0.00 0.00 61 1014.7
20260906060404 26 333 4.8 20.9 0.00 0.00 0.00 61 1014.6
20260906060317 26 333 4.8 20.9 0.00 0.00 0.00 61 1014.6
20260906060204 26 332 4.8 20.9 0.00 0.00 0.00 61 1014.6
20260906060116 26 331 4.8 20.9 0.00 0.00 0.00 61 1014.6
20260906060004 26 341 4.8 14.5 0.00 0.00 0.00 61 1014.6
20260906055915 26 342 4.8 14.5 0.00 0.00 0.00 61 1014.6
20260906055804 26 340 4.8 14.5 0.00 0.00 0.00 61 1014.6
20260906055716 26 342 4.8 14.5 0.00 0.00 0.00 62 1014.6
20260906055604 26 342 4.8 14.5 0.00 0.00 0.00 62 1014.6
20260906055517 26 347 4.8 14.5 0.00 0.00 0.00 62 1014.6
20260906055405 26 342 4.8 14.5 0.00 0.00 0.00 62 1014.6
20260906055317 25 339 4.8 14.5 0.00 0.00 0.00 62 1014.6
20260906055204 25 337 6.4 14.5 0.00 0.00 0.00 62 1014.5
20260906055116 25 325 6.4 20.9 0.00 0.00 0.00 62 1014.6
20260906055004 25 322 6.4 20.9 0.00 0.00 0.00 63 1014.5
20260906054916 25 335 6.4 20.9 0.00 0.00 0.00 63 1014.5
20260906054804 25 348 6.4 20.9 0.00 0.00 0.00 63 1014.5
20260906054716 25 358 6.4 20.9 0.00 0.00 0.00 63 1014.5
20260906054604 25 11 6.4 20.9 0.00 0.00 0.00 63 1014.6
20260906054516 25 22 4.8 24.1 0.00 0.00 0.00 63 1014.5
20260906054403 25 29 4.8 24.1 0.00 0.00 0.00 63 1014.6
20260906054315 25 36 4.8 24.1 0.00 0.00 0.00 63 1014.6
20260906054204 25 41 4.8 24.1 0.00 0.00 0.00 64 1014.5
20260906054116 25 53 3.2 24.1 0.00 0.00 0.00 64 1014.5
20260906054003 25 59 3.2 24.1 0.00 0.00 0.00 63 1014.5
20260906053916 25 63 3.2 24.1 0.00 0.00 0.00 63 1014.6
20260906053804 25 63 1.6 24.1 0.00 0.00 0.00 63 1014.5
20260906053716 25 67 1.6 24.1 0.00 0.00 0.00 64 1014.5
20260906053604 25 72 1.6 24.1 0.00 0.00 0.00 64 1014.5
20260906053516 25 74 1.6 9.7 0.00 0.00 0.00 63 1014.5
20260906053403 25 75 0.0 9.7 0.00 0.00 0.00 63 1014.5
20260906053316 25 76 0.0 9.7 0.00 0.00 0.00 63 1014.5
20260906053203 25 89 0.0 9.7 0.00 0.00 0.00 63 1014.5
20260906053117 25 108 0.0 9.7 0.00 0.00 0.00 63 1014.5
20260906053003 25 129 1.6 6.4 0.00 0.00 0.00 63 1014.5
20260906052915 25 140 1.6 6.4 0.00 0.00 0.00 63 1014.5
20260906052804 25 143 1.6 6.4 0.00 0.00 0.00 63 1014.5
20260906052715 25 156 1.6 6.4 0.00 0.00 0.00 63 1014.5
20260906052604 25 159 1.6 3.2 0.00 0.00 0.00 63 1014.5
20260906052516 25 159 1.6 3.2 0.00 0.00 0.00 63 1014.5
20260906052404 25 159 3.2 3.2 0.00 0.00 0.00 63 1014.4
20260906052316 25 160 3.2 9.7 0.00 0.00 0.00 63 1014.4
20260906052204 25 168 3.2 9.7 0.00 0.00 0.00 63 1014.4
20260906052116 25 178 3.2 9.7 0.00 0.00 0.00 63 1014.4
20260906052003 25 201 3.2 9.7 0.00 0.00 0.00 63 1014.4
20260906051916 25 214 4.8 9.7 0.00 0.00 0.00 63 1014.3
20260906051803 25 216 4.8 9.7 0.00 0.00 0.00 63 1014.3
20260906051715 25 215 4.8 9.7 0.00 0.00 0.00 63 1014.3
20260906051603 25 212 4.8 9.7 0.00 0.00 0.00 63 1014.3
20260906051515 25 208 4.8 9.7 0.00 0.00 0.00 63 1014.3
20260906051404 25 193 4.8 9.7 0.00 0.00 0.00 63 1014.3
20260906051316 25 190 4.8 9.7 0.00 0.00 0.00 63 1014.3
20260906051204 25 130 3.2 9.7 0.00 0.00 0.00 63 1014.2
20260906051116 25 112 3.2 9.7 0.00 0.00 0.00 63 1014.3
20260906051004 25 97 3.2 11.3 0.00 0.00 0.00 63 1014.3
20260906050916 25 91 3.2 11.3 0.00 0.00 0.00 63 1014.3
20260906050804 25 85 3.2 11.3 0.00 0.00 0.00 63 1014.3
20260906050715 25 84 3.2 11.3 0.00 0.00 0.00 63 1014.3
20260906050603 25 82 1.6 11.3 0.00 0.00 0.00 63 1014.3
20260906050516 25 81 1.6 11.3 0.00 0.00 0.00 63 1014.3
20260906050404 25 78 3.2 11.3 0.00 0.00 0.00 63 1014.3
20260906050316 25 79 3.2 11.3 0.00 0.00 0.00 63 1014.3
20260906050203 25 83 3.2 11.3 0.00 0.00 0.00 63 1014.3
20260906050115 25 83 3.2 11.3 0.00 0.00 0.00 63 1014.2
20260906050004 25 80 3.2 11.3 0.00 0.00 0.00 63 1014.2
20260906045916 25 74 3.2 9.7 0.00 0.00 0.00 63 1014.3
20260906045804 25 65 4.8 9.7 0.00 0.00 0.00 63 1014.2
20260906045715 25 55 4.8 9.7 0.00 0.00 0.00 63 1014.2
20260906045604 25 47 4.8 9.7 0.00 0.00 0.00 63 1014.2
20260906045516 25 42 4.8 9.7 0.00 0.00 0.00 63 1014.3
20260906045404 25 40 4.8 9.7 0.00 0.00 0.00 63 1014.3
20260906045315 25 42 4.8 9.7 0.00 0.00 0.00 62 1014.2
20260906045203 25 43 4.8 9.7 0.00 0.00 0.00 62 1014.3
20260906045116 25 44 4.8 9.7 0.00 0.00 0.00 62 1014.3
20260906045003 25 46 6.4 9.7 0.00 0.00 0.00 62 1014.3
20260906044930 25 50 6.4 9.7 0.00 0.00 0.00 62 1014.3
20260906044804 25 60 6.4 11.3 0.00 0.00 0.00 62 1014.2
20260906044715 25 65 6.4 11.3 0.00 0.00 0.00 62 1014.2
20260906044604 25 70 6.4 11.3 0.00 0.00 0.00 62 1014.2
20260906044515 25 74 6.4 11.3 0.00 0.00 0.00 62 1014.3
20260906044404 25 75 6.4 11.3 0.00 0.00 0.00 62 1014.2
20260906044315 25 75 6.4 11.3 0.00 0.00 0.00 62 1014.2
20260906044203 24 74 6.4 14.5 0.00 0.00 0.00 63 1014.2
20260906044116 25 75 6.4 14.5 0.00 0.00 0.00 62 1014.2
20260906044004 24 75 6.4 14.5 0.00 0.00 0.00 63 1014.1
20260906043915 24 76 6.4 14.5 0.00 0.00 0.00 62 1014.1
20260906043804 24 76 6.4 14.5 0.00 0.00 0.00 62 1014.1
20260906043715 24 77 8.0 14.5 0.00 0.00 0.00 62 1014.1
20260906043604 24 76 8.0 14.5 0.00 0.00 0.00 62 1014.1
20260906043516 24 75 8.0 14.5 0.00 0.00 0.00 62 1014.1
20260906043403 24 77 8.0 17.7 0.00 0.00 0.00 62 1014.1
20260906043315 24 76 8.0 17.7 0.00 0.00 0.00 62 1014.1
20260906043203 24 73 8.0 17.7 0.00 0.00 0.00 62 1014.1
20260906043115 24 72 9.7 17.7 0.00 0.00 0.00 62 1014.1
20260906043004 24 72 9.7 17.7 0.00 0.00 0.00 62 1014.0
20260906042915 24 71 9.7 24.1 0.00 0.00 0.00 62 1014.0
20260906042804 24 72 9.7 24.1 0.00 0.00 0.00 62 1014.0
20260906042715 24 73 9.7 24.1 0.00 0.00 0.00 62 1013.9
20260906042604 24 74 9.7 24.1 0.00 0.00 0.00 62 1014.0
20260906042515 24 75 9.7 24.1 0.00 0.00 0.00 62 1013.9
20260906042403 24 75 8.0 24.1 0.00 0.00 0.00 62 1013.9
20260906042315 24 75 8.0 24.1 0.00 0.00 0.00 62 1013.9
20260906042203 24 78 8.0 24.1 0.00 0.00 0.00 62 1013.8
20260906042115 24 78 8.0 24.1 0.00 0.00 0.00 62 1013.8
20260906042003 24 78 8.0 24.1 0.00 0.00 0.00 62 1013.8
20260906041916 24 78 8.0 24.1 0.00 0.00 0.00 62 1013.8
20260906041803 24 78 6.4 24.1 0.00 0.00 0.00 62 1013.8
20260906041716 24 79 6.4 24.1 0.00 0.00 0.00 62 1013.8
20260906041603 24 78 6.4 24.1 0.00 0.00 0.00 62 1013.8
20260906041516 24 77 6.4 24.1 0.00 0.00 0.00 62 1013.7
20260906041404 24 77 6.4 20.9 0.00 0.00 0.00 62 1013.8
20260906041315 24 77 8.0 20.9 0.00 0.00 0.00 62 1013.7
20260906041204 24 77 8.0 20.9 0.00 0.00 0.00 62 1013.7
20260906041115 24 77 8.0 20.9 0.00 0.00 0.00 62 1013.7
20260906041004 24 77 8.0 20.9 0.00 0.00 0.00 62 1013.7
20260906040915 24 77 8.0 20.9 0.00 0.00 0.00 62 1013.6
20260906040804 24 76 8.0 20.9 0.00 0.00 0.00 62 1013.7
20260906040716 24 75 8.0 20.9 0.00 0.00 0.00 62 1013.7
20260906040604 24 76 8.0 22.5 0.00 0.00 0.00 62 1013.7
20260906040515 24 75 8.0 22.5 0.00 0.00 0.00 62 1013.7
20260906040404 24 77 9.7 22.5 0.00 0.00 0.00 62 1013.7
20260906040316 24 76 9.7 22.5 0.00 0.00 0.00 62 1013.6
20260905225904 25 77 4.8 11.3 0.00 0.00 0.00 60 1013.9
20260905225816 25 78 4.8 11.3 0.00 0.00 0.00 60 1013.9
20260905225705 25 78 4.8 11.3 0.00 0.00 0.00 60 1013.9
20260905225616 25 77 4.8 11.3 0.00 0.00 0.00 60 1013.9
20260905225504 25 76 4.8 11.3 0.00 0.00 0.00 60 1013.9
20260905225416 25 75 3.2 11.3 0.00 0.00 0.00 60 1013.9
20260905225306 25 75 3.2 11.3 0.00 0.00 0.00 60 1013.9
20260905225216 25 74 3.2 11.3 0.00 0.00 0.00 60 1013.9
20260905225105 25 74 3.2 11.3 0.00 0.00 0.00 60 1013.8
20260905225017 25 74 3.2 11.3 0.00 0.00 0.00 60 1013.8
20260905224904 25 74 3.2 11.3 0.00 0.00 0.00 60 1013.8
20260905224816 25 74 1.6 9.7 0.00 0.00 0.00 60 1013.9
20260905224704 25 73 3.2 9.7 0.00 0.00 0.00 60 1013.9
20260905224616 25 79 3.2 9.7 0.00 0.00 0.00 60 1013.9
20260905224504 25 85 3.2 9.7 0.00 0.00 0.00 60 1013.9
20260905224416 25 91 3.2 9.7 0.00 0.00 0.00 60 1013.9
20260905224304 25 95 3.2 9.7 0.00 0.00 0.00 60 1013.9
20260905224217 25 96 3.2 9.7 0.00 0.00 0.00 60 1013.9
20260905224105 25 97 3.2 9.7 0.00 0.00 0.00 60 1013.9
20260905224017 25 98 4.8 9.7 0.00 0.00 0.00 60 1013.9
20260905223904 25 100 4.8 9.7 0.00 0.00 0.00 60 1013.9
20260905223816 25 100 4.8 14.5 0.00 0.00 0.00 60 1013.9
20260905223705 25 100 4.8 14.5 0.00 0.00 0.00 60 1014.0
20260905223616 25 96 4.8 14.5 0.00 0.00 0.00 60 1014.0
20260905223504 25 90 4.8 14.5 0.00 0.00 0.00 60 1014.0
20260905223416 25 86 4.8 14.5 0.00 0.00 0.00 60 1014.0
20260905223304 25 81 4.8 14.5 0.00 0.00 0.00 60 1014.0
20260905223216 25 80 4.8 14.5 0.00 0.00 0.00 60 1014.0
20260905223103 25 76 4.8 14.5 0.00 0.00 0.00 61 1014.0
20260905223015 25 71 4.8 14.5 0.00 0.00 0.00 61 1014.0
20260905222904 25 70 4.8 14.5 0.00 0.00 0.00 61 1014.0
20260905222816 25 69 4.8 17.7 0.00 0.00 0.00 61 1014.0
20260905222704 25 67 4.8 17.7 0.00 0.00 0.00 61 1014.0
20260905222617 25 67 4.8 17.7 0.00 0.00 0.00 61 1014.0
20260905222504 25 69 4.8 17.7 0.00 0.00 0.00 61 1014.0
20260905222416 25 71 4.8 17.7 0.00 0.00 0.00 61 1014.0
20260905222306 25 74 4.8 17.7 0.00 0.00 0.00 61 1014.0
20260905222216 25 75 4.8 17.7 0.00 0.00 0.00 61 1014.0
20260905222104 25 77 4.8 17.7 0.00 0.00 0.00 61 1014.0
20260905222016 25 81 4.8 17.7 0.00 0.00 0.00 61 1014.1
20260905221904 25 82 4.8 17.7 0.00 0.00 0.00 61 1014.0
20260905221816 25 80 4.8 14.5 0.00 0.00 0.00 61 1014.1
20260905221704 25 78 4.8 14.5 0.00 0.00 0.00 61 1014.1
20260905221616 25 78 4.8 14.5 0.00 0.00 0.00 61 1014.1
20260905221505 25 80 4.8 14.5 0.00 0.00 0.00 61 1014.1
20260905221416 25 81 3.2 14.5 0.00 0.00 0.00 61 1014.1
20260905221304 25 81 3.2 14.5 0.00 0.00 0.00 62 1014.1
20260905221216 25 82 3.2 14.5 0.00 0.00 0.00 62 1014.1
20260905221104 25 84 3.2 14.5 0.00 0.00 0.00 62 1014.1
20260905221016 25 79 3.2 14.5 0.00 0.00 0.00 62 1014.1
20260905220904 25 73 3.2 9.7 0.00 0.00 0.00 62 1014.1
20260905220816 25 73 1.6 9.7 0.00 0.00 0.00 62 1014.1
20260905220704 25 76 1.6 9.7 0.00 0.00 0.00 62 1014.1
20260905220616 25 70 1.6 9.7 0.00 0.00 0.00 62 1014.1
20260905220504 25 57 3.2 9.7 0.00 0.00 0.00 62 1014.2
20260905220417 25 45 3.2 9.7 0.00 0.00 0.00 62 1014.2
20260905220304 25 38 3.2 9.7 0.00 0.00 0.00 62 1014.2
20260905220216 25 27 3.2 9.7 0.00 0.00 0.00 62 1014.2
20260905220104 25 20 3.2 9.7 0.00 0.00 0.00 62 1014.2
20260905220016 25 13 3.2 9.7 0.00 0.00 0.00 62 1014.2
20260905215904 25 9 4.8 9.7 0.00 0.00 0.00 62 1014.2
20260905215815 25 2 4.8 9.7 0.00 0.00 0.00 62 1014.2
20260905215704 25 354 4.8 9.7 0.00 0.00 0.00 62 1014.2
20260905215615 25 344 6.4 9.7 0.00 0.00 0.00 61 1014.2
20260905215504 25 334 6.4 9.7 0.00 0.00 0.00 62 1014.2
20260905215415 25 328 6.4 11.3 0.00 0.00 0.00 62 1014.1
20260905215306 25 318 6.4 20.9 0.00 0.00 0.00 61 1014.1
20260905215215 25 321 6.4 27.4 0.00 0.00 0.00 62 1014.2
20260905215104 25 314 6.4 27.4 0.00 0.00 0.00 62 1014.2
20260905215016 25 322 6.4 27.4 0.00 0.00 0.00 62 1014.2
20260905214904 25 327 6.4 27.4 0.00 0.00 0.00 62 1014.2
20260905214816 25 333 6.4 27.4 0.00 0.00 0.00 62 1014.2
20260905214704 25 344 4.8 27.4 0.00 0.00 0.00 62 1014.3
20260905214616 25 350 4.8 27.4 0.00 0.00 0.00 62 1014.2
20260905214504 25 3 4.8 27.4 0.00 0.00 0.00 62 1014.3
20260905214415 25 1 4.8 27.4 0.00 0.00 0.00 62 1014.3
20260905214304 25 20 4.8 27.4 0.00 0.00 0.00 62 1014.3
20260905214216 25 21 4.8 27.4 0.00 0.00 0.00 61 1014.3
20260905214104 25 58 4.8 9.7 0.00 0.00 0.00 61 1014.2
20260905214017 25 12 4.8 9.7 0.00 0.00 0.00 61 1014.2
20260905213904 25 293 4.8 11.3 0.00 0.00 0.00 61 1014.2
20260905213818 25 292 4.8 11.3 0.00 0.00 0.00 61 1014.2
20260905213704 25 296 4.8 14.5 0.00 0.00 0.00 61 1014.2
20260905213615 25 296 4.8 14.5 0.00 0.00 0.00 61 1014.2
20260905213504 25 296 4.8 14.5 0.00 0.00 0.00 61 1014.2
20260905213416 25 293 4.8 14.5 0.00 0.00 0.00 61 1014.3
20260905213304 25 303 6.4 14.5 0.00 0.00 0.00 61 1014.3
20260905213216 25 308 6.4 14.5 0.00 0.00 0.00 61 1014.3
20260905213104 25 314 6.4 14.5 0.00 0.00 0.00 61 1014.4
20260905213017 25 320 6.4 14.5 0.00 0.00 0.00 61 1014.3
20260905212904 25 326 6.4 14.5 0.00 0.00 0.00 61 1014.4
20260905212816 25 324 6.4 14.5 0.00 0.00 0.00 61 1014.4
20260905212704 25 327 6.4 14.5 0.00 0.00 0.00 61 1014.4
20260905212616 25 339 6.4 14.5 0.00 0.00 0.00 61 1014.3
20260905212504 25 356 6.4 14.5 0.00 0.00 0.00 61 1014.4
20260905212416 25 5 6.4 27.4 0.00 0.00 0.00 61 1014.3
20260905212306 25 2 6.4 27.4 0.00 0.00 0.00 61 1014.3
20260905212215 25 11 6.4 27.4 0.00 0.00 0.00 61 1014.2
20260905212104 25 14 6.4 27.4 0.00 0.00 0.00 61 1014.2
20260905212017 25 13 6.4 27.4 0.00 0.00 0.00 62 1014.2
20260905211904 25 9 6.4 27.4 0.00 0.00 0.00 62 1014.2
20260905211816 25 5 6.4 27.4 0.00 0.00 0.00 61 1014.2
20260905211704 25 350 6.4 29.0 0.00 0.00 0.00 61 1014.3
20260905211616 25 337 6.4 29.0 0.00 0.00 0.00 61 1014.2
20260905211504 25 321 6.4 29.0 0.00 0.00 0.00 61 1014.3
20260905211416 25 315 6.4 29.0 0.00 0.00 0.00 62 1014.3
20260905211304 25 307 6.4 29.0 0.00 0.00 0.00 62 1014.3
20260905211216 25 285 6.4 29.0 0.00 0.00 0.00 62 1014.3
20260905211104 25 272 6.4 29.0 0.00 0.00 0.00 62 1014.3
20260905211016 25 260 6.4 29.0 0.00 0.00 0.00 62 1014.3
20260905210904 25 243 6.4 29.0 0.00 0.00 0.00 62 1014.3
20260905210816 25 222 6.4 29.0 0.00 0.00 0.00 62 1014.3
20260905210704 25 207 6.4 14.5 0.00 0.00 0.00 62 1014.2
20260905210615 25 205 6.4 14.5 0.00 0.00 0.00 62 1014.2
20260905210504 25 198 6.4 14.5 0.00 0.00 0.00 62 1014.2
20260905210417 25 198 6.4 14.5 0.00 0.00 0.00 62 1014.1
20260905210304 25 195 4.8 14.5 0.00 0.00 0.00 62 1014.1
20260905210205 25 208 4.8 14.5 0.00 0.00 0.00 62 1014.1
20260905210116 25 223 4.8 27.4 0.00 0.00 0.00 62 1014.1
20260905210014 25 207 4.8 27.4 0.00 0.00 0.00 62 1014.1
20260905205916 25 200 4.8 27.4 0.00 0.00 0.00 62 1014.1
20260905205804 25 191 4.8 27.4 0.00 0.00 0.00 62 1014.1
20260905205715 25 152 4.8 27.4 0.00 0.00 0.00 62 1014.1
20260905205604 25 112 4.8 27.4 0.00 0.00 0.00 62 1014.1
20260905205516 25 127 4.8 27.4 0.00 0.00 0.00 62 1014.1
20260905205404 25 129 4.8 27.4 0.00 0.00 0.00 62 1014.1
20260905205316 25 147 4.8 27.4 0.00 0.00 0.00 62 1014.1
20260905205205 25 145 4.8 27.4 0.00 0.00 0.00 62 1014.1
20260905205117 25 140 4.8 20.9 0.00 0.00 0.00 62 1014.1
20260905205003 25 153 6.4 20.9 0.00 0.00 0.00 63 1014.1
20260905204916 25 131 6.4 20.9 0.00 0.00 0.00 63 1014.1
20260905204804 25 118 6.4 20.9 0.00 0.00 0.00 63 1014.1
20260905204716 25 93 6.4 20.9 0.00 0.00 0.00 63 1014.1
20260905204604 25 55 6.4 20.9 0.00 0.00 0.00 63 1014.1
20260905204515 25 41 6.4 20.9 0.00 0.00 0.00 63 1014.2
20260905204404 25 59 6.4 20.9 0.00 0.00 0.00 63 1014.1
20260905204316 25 117 6.4 20.9 0.00 0.00 0.00 63 1014.1
20260905204204 25 148 6.4 20.9 0.00 0.00 0.00 63 1014.0
20260905204116 25 34 6.4 20.9 0.00 0.00 0.00 63 1014.0
20260905204004 25 343 6.4 20.9 0.00 0.00 0.00 63 1014.0
20260905203916 25 328 6.4 20.9 0.00 0.00 0.00 63 1014.0
20260905203804 25 330 6.4 20.9 0.00 0.00 0.00 63 1014.0
20260905203716 25 319 6.4 17.7 0.00 0.00 0.00 63 1014.0
20260905203604 25 290 4.8 17.7 0.00 0.00 0.00 63 1014.0
20260905203516 25 270 4.8 17.7 0.00 0.00 0.00 63 1014.0
20260905203405 25 308 4.8 14.5 0.00 0.00 0.00 63 1014.0
20260905203316 25 347 4.8 14.5 0.00 0.00 0.00 63 1014.1
20260905203204 25 83 4.8 14.5 0.00 0.00 0.00 63 1014.0
20260905203116 25 169 4.8 14.5 0.00 0.00 0.00 63 1014.1
20260905203004 25 177 4.8 11.3 0.00 0.00 0.00 63 1014.0
20260905202916 25 175 4.8 11.3 0.00 0.00 0.00 63 1014.1
20260905202804 25 185 4.8 11.3 0.00 0.00 0.00 63 1014.1
20260905202716 25 195 4.8 11.3 0.00 0.00 0.00 63 1014.1
20260905202604 25 211 4.8 11.3 0.00 0.00 0.00 63 1014.1
20260905202516 25 228 4.8 11.3 0.00 0.00 0.00 63 1014.1
20260905202405 25 245 4.8 11.3 0.00 0.00 0.00 62 1014.1
20260905202317 25 251 4.8 11.3 0.00 0.00 0.00 62 1014.0
20260905202205 25 260 4.8 11.3 0.00 0.00 0.00 62 1014.1
20260905202117 25 269 4.8 9.7 0.00 0.00 0.00 62 1014.1
20260905202005 25 270 4.8 6.4 0.00 0.00 0.00 62 1014.1
20260905201918 25 270 4.8 6.4 0.00 0.00 0.00 62 1014.1